Regional Weather Roundup
Issued by NWS

Home | Current Version | Previous Version | Text Only | Print | Product List | Glossary On
Versions: 1 2 3 4 5 6 7 8 9 10 11 12 13 14 15 16 17 18 19 20 21 22 23 24 25 26 27 28 29 30 31 32 33 34 35 36 37 38 39 40 41 42 43 44 45 46 47 48 49 50
000
ASUS43 KMKX 171800
RWRWI

WISCONSIN REGIONAL WEATHER ROUNDUP
NATIONAL WEATHER SERVICE MILWAUKEE/SULLIVAN WI
1200 PM CST WED DEC 17 2014

NOTE: "FAIR" INDICATES FEW OR NO CLOUDS BELOW 12,000 FEET WITH NO
SIGNIFICANT WEATHER AND/OR OBSTRUCTIONS TO VISIBILITY.

WIZ001-002-006>008-014>016-023>028-171900-
NORTHWEST WISCONSIN

CITY           SKY/WX    TMP DP  RH WIND       PRES   REMARKS
SUPERIOR ARPT  CLOUDY    18  11  74 N5        30.30R WCI  11
ASHLAND        PTSUNNY   22  17  81 W5        30.25S WCI  16
6HR MIN TEMP:  14; 6HR MAX TEMP:  22; 6HR PCP: TRACE;

HAYWARD        PTSUNNY   18   9  68 VRB6      30.24S WCI  10
6HR MIN TEMP:  12; 6HR MAX TEMP:  18; 6HR PCP: TRACE;

SIREN          CLOUDY    16   9  71 CALM      30.28S
CUMBERLAND     FLURRIES  16   9  73 NW5       30.25S WCI   9
RICE LAKE      PTSUNNY   17   9  71 NW6       30.27F WCI   8
CHETEK         PTSUNNY   17   9  71 NW3       30.26F
LADYSMITH      FAIR      18   9  70 W3        30.24F
EAU CLAIRE     NOT AVBL
MENOMONIE      CLOUDY    19  11  73 W6        30.28S WCI  11
NEW RICHMOND   LGT SNOW  16  11  82 NW8       30.30R WCI   5
OSCEOLA        FLURRIES  17  10  75 W8        30.33S WCI   6
$$

WIZ003>005-009-010-017-018-171900-
NORTH CENTRAL WISCONSIN

CITY           SKY/WX    TMP DP  RH WIND       PRES   REMARKS
MANITOWISH WTR FLURRIES  17  13  83 NW10G17   30.14F WCI   5
ARBOR VITAE    LGT SNOW  19  14  79 NW8       30.13F WCI   9
WOODRUFF       LGT SNOW  19  14  79 NW8       30.13F WCI   9
RHINELANDER    CLOUDY    19  12  74 W12       30.13F WCI   7
6HR MIN TEMP:  14; 6HR MAX TEMP:  19; 6HR PCP: TRACE;

EAGLE RIVER    LGT SNOW  19  13  77 NW12      30.11F WCI   7
LAND O LAKES   LGT SNOW  21  18  88 W6        30.12S WCI  14
PHILLIPS       PTSUNNY   18  10  70 NW6       30.18S WCI   9
TOMAHAWK       MOSUNNY   19  11  72 CALM      30.17S
MEDFORD        FAIR      15   8  72 W8        30.18F WCI   4
MERRILL        FAIR      20  11  68 N8        30.17F WCI  10
$$

WIZ029-030-035-036-043>047-171900-
CENTRAL WISCONSIN

CITY           SKY/WX    TMP DP  RH WIND       PRES   REMARKS
WAUSAU         FAIR      20  10  65 W10       30.17S WCI   9
6HR MIN TEMP:  18; 6HR MAX TEMP:  20; 6HR PCP: TRACE;

MOSINEE        CLOUDY    19  14  79 W14       30.18F WCI   6
MARSHFIELD     LGT SNOW  20  13  74 N9        30.20S WCI   9
6HR MIN TEMP:  20; 6HR MAX TEMP:  21; 6HR PCP: TRACE;

STEVENS POINT  FLURRIES  19  11  70 NW9       30.19F WCI   8
WAUPACA        PTSUNNY   25  14  62 NW12      30.20F WCI  15
WAUTOMA        NOT AVBL
WISC RAPIDS    CLOUDY    21  12  68 NW8       30.21F WCI  11
6HR MIN TEMP:  21; 6HR MAX TEMP:  22; 6HR PCP: TRACE;

CAMP DOUGLAS   NOT AVBL
$$

WIZ011>013-019>022-031-037>040-048>050-171900-
NORTHEAST WISCONSIN

CITY           SKY/WX    TMP DP  RH WIND       PRES   REMARKS
ANTIGO         FLURRIES  19  12  75 W12       30.13F WCI   6
SHAWANO        CLOUDY    26  15  62 NW10      30.17F WCI  17
OCONTO         CLOUDY    24  16  71 W13G18    30.14F WCI  12
STURGEON BAY   CLOUDY    25  16  68 NW15G24   30.12F WCI  12
6HR MIN TEMP:  23; 6HR MAX TEMP:  25;

GREEN BAY      CLOUDY    25  16  68 NW13      30.16F WCI  14
6HR MIN TEMP:  24; 6HR MAX TEMP:  25; 6HR PCP: TRACE;

MANITOWOC      NOT AVBL
APPLETON       PTSUNNY  N/A N/A N/A NW15      30.18F
CLINTONVILLE   PTSUNNY   25  12  58 NW13      30.18F WCI  13
OSHKOSH        FLURRIES  24  16  71 NW16G22   30.18F WCI  11
6HR MIN TEMP:  23; 6HR MAX TEMP:  24; 6HR PCP: TRACE;

$$

WIZ032>034-041-042-053>061-171900-
SOUTHWEST WISCONSIN

CITY           SKY/WX    TMP DP  RH WIND       PRES   REMARKS
LA CROSSE      FAIR      23  12  62 N10       30.28F WCI  12
6HR MIN TEMP:  20; 6HR MAX TEMP:  23; 6HR PCP: TRACE;

SPARTA         FLURRIES  22  13  69 W7        30.26F WCI  13
VIROQUA        CLOUDY    19  14  82 NW9       30.23F WCI   8
BOSCOBEL       CLOUDY    22  14  71 W6        30.28F WCI  14
6HR MIN TEMP:  22; 6HR MAX TEMP:  23; 6HR PCP: TRACE;

PRAIRIE DU CHI FLURRIES  21  11  66 W9        30.29F WCI  11
PLATTEVILLE    CLOUDY    21  16  82 NW10      30.26S WCI  10
$$

WIZ056-057-062-063-064-067-068-171900-
SOUTH CENTRAL WISCONSIN

CITY           SKY/WX    TMP DP  RH WIND       PRES   REMARKS
REEDSBURG      CLOUDY    23  15  71 W9        30.22F WCI  13
BARABOO/DELLS  CLOUDY    23  15  71 NW9       30.21F WCI  13
LONE ROCK      NOT AVBL
MINERAL POINT  FLURRIES  23  18  80 W8        30.23S WCI  14
MADISON        FLURRIES  24  15  68 NW9       30.21F WCI  14
6HR MIN TEMP:  23; 6HR MAX TEMP:  25; 6HR PCP: TRACE;

MIDDLETON      CLOUDY    26  17  67 W13       30.22F WCI  15
WATERTOWN      CLOUDY    24  18  77 NW10      30.20F WCI  13
MONROE         CLOUDY    25  18  74 NW10      30.22F WCI  15
JANESVILLE     CLOUDY    27  18  69 NW12      30.22F WCI  16
$$

WIZ051-052-058>065-066-070>072-171900-
SOUTHEAST WISCONSIN

CITY           SKY/WX    TMP DP  RH WIND       PRES   REMARKS
MILWAUKEE      CLOUDY    26  14  60 W13G22    30.19F WCI  15
6HR MIN TEMP:  26; 6HR MAX TEMP:  27;

WAUKESHA       CLOUDY    23  16  74 W14       30.20S WCI  11
MILWAUKEE/TIMM NOT AVBL
RACINE         CLOUDY    26  15  63 NW14      30.21F WCI  14
6HR MIN TEMP:  26; 6HR MAX TEMP:  27;

BURLINGTON     CLOUDY    24  17  75 W10       30.20F WCI  13
KENOSHA        CLOUDY    26  17  68 NW15      30.20F WCI  14
6HR MIN TEMP:  25; 6HR MAX TEMP:  26;

FOND DU LAC    CLOUDY    24  16  71 W15       30.18F WCI  11
6HR MIN TEMP:  24; 6HR MAX TEMP:  25; 6HR PCP: TRACE;

SHEBOYGAN      MOSUNNY   25  15  66 NW13      30.16F WCI  14
6HR MIN TEMP:  24; 6HR MAX TEMP:  25; 6HR PCP: TRACE;

WEST BEND      CLOUDY    25  18  74 W15       30.17F WCI  12
JUNEAU         CLOUDY    23  16  75 W10G18    30.20F WCI  12
$$

LSZ147-162-171900-
LAKE SUPERIOR

STATION/POSITION TIME  TEMP    WIND        PRES    WAVE
                       AIR SEA DIR/SP/G            HT/PER
                 (UTC) (F)     (DEG/KT/KT) (MB)    (FT/S)
DEVILS ISLAND    1700   24      20/ 13/ 15 1025.4F
PORT WING        1700   21     350/  8/ 10 1025.1S
SAXON HARBOR     1700   21     250/  3/  9 1024.0
$$

LMZ867-665-643>646-171900-
LAKE MICHIGAN

STATION/POSITION TIME  TEMP    WIND        PRES    WAVE
                       AIR SEA DIR/SP/G            HT/PER
                 (UTC) (F)     (DEG/KT/KT) (MB)    (FT/S)
CHAMBERS ISLAND  1700   25     250/  6/ 13 1020.0S
NORTHPORT PIER   1700   26     290/ 12/ 22 1019.0F
SISTER BAY       1558          310/ 21/ 27   N/A
ALGOMA LAKESHORE 1714          310/ 13/ 20   N/A
KEWAUNEE LAKESHO 1700   26     300/ 14/ 22 1019.7F
SHEBOYGAN LAKESH 1700   24 35  280/ 18/ 22 1022.9F
PORT WASHINGTON  1700   26     300/ 11/ 18 1023.0F
MILWAUKEE LAKESH 1700   25     290/ 14/ 18   N/A
KENOSHA   LAKESH 1700   26     280/ 13/ 19 1023.4R
$$

TC  - TEMPERATURE IN CELSIUS
VSB - VISIBILITY IN STATUTE MILES
WCI - WIND CHILL INDEX
HX  - HEAT INDEX



USA.gov is the U.S. government's official web portal to all federal, state and local government web resources and services.